Location: Central Falls
(41.8900°N, 71.3929°W)
Time: 02:36:40
(UTC+00:00)

Vanguard 2 Rocket - Pass Details

Date: 04 December 2023
Orbit: 555 x 3309 km, 32.9° (Epoch: 01 March)

Event Time Altitude Azimuth Distance (km) Brightness Sun altitude
Rises 16:13:27 0° 186° (S) 5,633 12.2 25.6°
Reaches altitude 10° 16:18:32 10° 169° (S) 5,098 12.6 25.7°
Maximum altitude 16:28:11 19° 131° (SE) 5,020 11.5 25.8°
Drops below altitude 10° 16:39:39 10° 94° (E) 6,217 11.3 25.8°
Sets 16:46:49 0° 81° (E) 7,294 11.4 25.8°
